Location: Val-d'Or
(48.1170°N, 77.7670°W)
Time: 18:03:14
(UTC-04:00)

ISS - Visible Passes

Search period start: 25 June 2019 00:00
Search period end: 05 July 2019 00:00
Orbit: 408 x 418 km, 51.6° (Epoch: 25 June)

Date Brightness Start Highest point End Pass type
(mag) Time Alt. Az. Time Alt. Az. Time Alt. Az.
01 Jul -1.8 04:24:46 10° S 04:27:13 19° SE 04:29:41 10° E visible
02 Jul -1.3 03:36:26 10° SSE 03:37:51 12° SE 03:39:14 10° ESE visible
03 Jul -3.0 04:21:20 10° SW 04:24:25 41° SSE 04:27:33 10° ENE visible
04 Jul -2.4 03:33:29 19° S 03:34:55 26° SE 03:37:45 10° E visible
